SCP
0 0 0 0 0 0 0 0 0 0 0 0 0 0 0 0 0 0 0 0 0 0 0 0 0 1 1 1 0 0 1 1 0 0 0 1 1 1 1 0 0 0 0 0
0 0 0 0 0 0 0 0 0 0 0 0 0 0 0 0 0 0 0 0 0 0 0 0 0 1 1 1 0 0 0 0 0 0 0 0 0 1 1 0 0 0 0 0
0 0 0 0 0 0 0 0 0 0 0 0 0 0 0 0 0 0 0 0 0 0 0 0 0 0 0 0 0 0 0 0 0 0 0 0 0 0 0 0 0 0 0 0
0 0 0 0 0 0 0 0 0 0 0 0 0 0 0 0 0 0 0 0 0 0 0 0 0 0 0 0 0 0 0 0 0 0 0 0 0 0 0 0 0 0 0 0
0 0 0 0 0 0 0 0 0 0 0 0 0 0 0 0 0 0 0 0 0 0 0 0 0 0 0 0 0 0 0 0 0 0 0 0 0 0 0 0 0 0 0 0
0 0 0 0 0 0 0 0 0 0 0 0 0 0 0 0 0 0 0 0 0 0 0 0 0 0 0 0 0 0 0 0 0 0 0 0 0 0 0 0 0 0 0 0
0 0 0 0 0 0 0 0 0 0 0 0 0 0 0 0 0 0 0 0 0 0 0 0 0 0 0 0 0 0 0 0 0 0 0 0 0 0 0 0 0 0 0 0
0 0 0 0 0 0 0 0 0 0 0 0 0 0 0 0 0 0 0 0 0 0 0 0 0 0 0 0 0 0 0 0 0 0 0 0 0 0 0 0 0 0 0 0
0 0 0 0 0 0 0 0 0 0 0 0 0 0 0 0 0 0 0 0 0 0 0 0 0 0 0 0 0 0 0 0 0 0 0 0 0 0 0 0 0 0 0 0
0 0 0 0 0 0 0 0 0 0 0 0 0 0 0 0 0 0 0 0 0 0 0 0 0 0 0 0 0 0 0 0 0 0 0 0 0 0 0 0 0 0 0 0
0 0 0 0 0 0 0 0 0 0 0 0 0 0 0 0 0 0 0 0 0 0 0 0 0 0 0 0 0 0 0 0 0 0 0 0 0 0 0 0 0 0 0 0
0 0 0 0 0 0 0 0 0 0 0 0 0 0 0 0 0 0 0 0 0 0 0 0 0 0 0 0 0 0 0 0 0 0 0 0 0 0 0 0 0 0 0 0
0 0 0 0 0 0 0 0 0 0 0 0 0 0 0 0 0 0 0 0 0 0 0 0 0 0 0 0 0 0 0 0 0 0 0 0 0 0 0 0 0 0 0 0
0 0 0 0 0 0 0 0 0 0 0 0 0 0 0 0 0 0 0 0 0 0 0 0 0 0 0 0 0 0 0 0 0 0 0 0 0 0 0 0 0 0 0 0
0 0 0 0 0 0 0 0 0 -0 0 0 0 0 0 0 0 0 0 0 0 0 0 0 0 0 0 0 0 0 0 0 0 0 0 0 0 0 0 0 0 0 0 0
0 0 0 0 0 0 0 -0 0 0 0 0 0 0 0 0 0 0 0 0 0 0 0 0 0 0 0 0 0 0 0 0 0 0 0 0 0 0 0 0 0 0 0 0
0 0 0 0 0 -0 0 0 0 0 0 0 0 0 0 0 0 0 0 0 0 0 0 0 0 0 0 0 0 0 0 0 0 0 0 0 0 0 0 0 0 0 0 0
0 0 0 0 0 -0 0 0 0 0 0 0 0 0 0 0 0 0 0 0 0 0 0 0 0 0 0 0 0 0 0 0 0 0 0 0 0 0 0 0 0 0 0 0
0 0 0 0 0 0 0 0 0 0 0 0 0 0 0 0 0 0 0 0 0 0 0 0 0 0 0 0 0 0 0 0 0 0 0 0 0 0 0 0 0 0 0 0
0 0 0 0 0 0 0 0 0 0 0 0 0 0 0 0 0 0 0 0 0 0 0 0 0 0 0 0 0 0 0 0 0 0 0 0 0 0 0 0 0 0 0 0
0 0 0 0 0 0 0 0 0 0 0 0 0 0 0 0 0 0 0 0 0 0 0 0 0 0 0 0 0 0 0 0 0 0 0 0 0 0 0 0 0 0 0 0
0 0 0 0 0 0 0 0 0 0 0 0 0 0 0 0 0 0 0 0 0 0 0 0 0 0 0 0 0 0 0 0 0 0 0 0 0 0 0 0 0 0 0 0
0 0 0 -0 0 0 0 0 0 0 0 0 0 0 0 0 0 0 0 0 0 0 0 0 0 0 0 0 0 0 0 0 0 0 0 0 0 0 0 0 0 0 0 0
0 0 0 -0 -0 0 0 0 0 0 0 0 0 0 0 0 0 0 0 0 0 0 0 0 0 0 0 0 0 0 0 0 0 0 0 0 0 0 0 0 0 0 0 0
0 0 0 -0 0 0 0 0 0 0 0 0 0 0 0 0 0 0 0 0 0 0 0 0 0 0 0 0 0 0 0 0 0 0 0 0 0 0 0 0 0 0 0 0
-0 -0 -0 -0 0 0 0 0 0 0 0 0 0 0 0 0 0 0 0 0 0 0 0 0 0 0 0 0 0 0 0 0 0 0 0 0 0 0 0 0 0 0 0 0
-0 -0 -0 -0 0 0 0 0 0 0 0 0 0 0 0 0 0 0 0 0 0 0 0 0 0 0 0 0 0 0 0 0 0 0 0 0 0 0 0 0 0 0 0 0
Wind_Speed
6 5 4 6 7 6 8 8 8 8 9 10 6 6 6 5 4 5 5 5 5 5 5 4 4 3 3 2 2 2 1 1 2 2 1 1 1 1 1 1 1 2 2 2
4 5 5 7 8 8 8 7 8 8 11 5 5 4 4 5 4 5 6 7 6 5 5 4 4 4 3 2 2 1 1 1 2 2 1 1 1 1 1 1 1 1 2 2
3 4 3 6 7 7 5 5 6 9 9 5 6 6 6 6 5 6 6 6 6 5 5 4 4 3 3 2 1 1 1 2 2 1 1 1 2 1 1 1 1 2 2 2
1 2 5 6 1 4 5 5 5 5 5 4 6 6 5 4 3 5 6 6 6 5 5 5 4 3 3 2 1 1 1 2 2 1 2 2 1 2 2 1 1 2 2 3
2 2 7 6 2 2 3 5 4 5 5 5 4 4 3 2 3 4 5 5 5 4 4 4 3 3 3 3 2 2 2 2 2 2 2 2 2 2 2 1 2 2 3 3
2 3 6 5 2 1 2 5 2 2 3 4 3 3 5 5 6 6 5 5 4 4 4 4 4 3 2 3 2 2 2 3 3 2 2 2 2 2 2 2 2 2 3 3
4 4 8 5 2 2 2 6 2 1 2 1 2 4 5 6 6 5 5 5 4 4 4 4 4 2 2 2 3 3 3 3 3 2 2 2 2 2 2 1 2 2 3 3
4 4 8 2 2 3 5 2 1 2 2 2 3 4 4 5 5 5 5 5 4 4 4 4 4 3 2 3 3 3 3 3 3 3 3 2 2 2 2 1 1 2 2 3
7 7 3 1 3 3 2 2 2 2 2 1 3 4 4 4 5 5 4 4 4 4 4 5 4 3 2 4 3 3 2 3 3 3 3 3 2 2 2 1 1 2 2 2
4 6 4 3 3 2 2 2 2 1 2 2 2 4 4 4 4 5 4 4 4 4 4 5 5 4 3 4 3 2 3 3 3 2 2 2 2 2 2 2 2 2 2 2
4 5 3 3 3 3 2 1 1 1 2 2 3 4 4 4 4 4 4 3 3 3 4 5 5 5 5 4 3 2 3 3 3 2 2 2 2 2 3 3 3 3 3 3
6 5 4 4 3 2 1 2 2 2 2 2 2 3 3 4 4 4 4 3 3 4 4 5 5 5 5 4 3 2 3 3 2 2 2 2 2 3 4 4 5 5 5 4
3 2 3 3 2 1 1 2 2 2 3 3 3 3 3 3 3 3 4 4 4 4 4 4 4 5 5 4 3 2 3 3 2 2 2 2 2 2 3 4 4 4 4 4
1 1 1 1 2 2 2 2 2 2 2 2 2 3 2 3 3 3 4 4 4 4 4 4 4 5 5 4 3 3 3 3 3 2 2 2 2 2 2 2 3 3 3 4
1 1 3 2 1 2 2 1 2 2 2 3 2 2 3 3 4 4 4 5 4 4 4 4 4 5 5 4 3 3 3 2 2 2 2 2 2 2 2 2 2 3 2 2
2 1 0 0 1 2 2 2 2 3 3 3 3 3 3 3 4 4 4 4 4 4 5 5 5 5 5 4 3 3 3 4 3 2 2 2 2 2 2 2 2 2 2 2
2 2 2 2 3 3 3 3 3 3 3 3 3 3 3 3 4 4 4 4 4 4 4 4 5 5 5 4 3 3 3 3 4 3 2 2 2 2 2 2 2 2 2 2
3 4 4 4 3 3 3 3 2 3 3 3 3 2 2 3 4 5 5 5 4 4 4 5 5 5 4 4 3 3 2 2 2 2 2 2 2 2 2 2 2 2 2 2
2 2 2 2 2 2 2 3 3 3 2 2 2 2 3 3 4 4 4 4 4 5 5 5 7 5 4 5 4 2 2 2 2 2 2 3 2 2 1 1 2 1 1 1
1 1 1 1 1 1 2 2 2 2 2 1 2 2 3 4 4 4 4 3 3 4 5 6 5 3 4 4 5 2 2 3 2 2 2 2 2 2 1 1 1 1 1 1
1 1 1 1 2 2 2 2 1 2 2 2 2 3 4 4 3 3 3 4 4 4 4 6 4 3 3 4 4 2 2 2 2 2 2 2 2 2 2 1 1 1 1 1
2 1 2 2 1 2 2 1 1 2 2 2 2 2 3 3 4 3 3 3 4 7 5 3 3 4 5 4 2 2 2 2 2 2 2 2 2 2 2 1 1 1 1 1
2 2 2 2 2 2 2 1 1 2 2 2 3 3 3 3 2 2 4 3 3 7 5 3 5 7 6 3 2 2 2 3 2 2 2 2 2 2 2 2 1 1 1 1
2 2 2 1 1 1 2 2 2 2 2 3 3 3 3 3 3 3 3 6 7 7 4 5 8 7 6 2 2 2 2 3 3 2 2 2 2 1 2 1 1 1 1 1
2 2 1 1 1 2 2 2 2 2 2 2 3 3 2 2 3 3 3 4 6 6 4 5 8 7 4 2 2 3 3 2 2 2 2 2 2 2 2 1 1 1 1 1
2 2 2 3 3 2 1 1 1 2 2 2 2 2 2 2 2 3 3 3 4 5 4 3 4 4 3 3 3 3 3 3 3 3 2 2 2 2 2 2 2 1 1 1
1 1 1 1 1 1 1 1 2 2 2 2 3 3 2 2 2 2 3 3 3 3 3 3 3 2 2 2 3 3 3 3 3 3 3 2 2 2 2 2 1 1 1 1
Wind_Direction
256 261 243 247 253 236 221 218 224 248 257 273 284 293 301 305 311 318 320 321 321 320 319 319 324 325 323 322 321 310 304 292 280 280 283 291 294 285 264 246 256 250 251 254
275 265 254 261 257 240 236 236 241 263 273 274 290 300 307 312 317 318 317 318 321 324 324 322 323 324 325 324 326 329 322 308 309 311 307 300 296 289 278 279 276 274 270 265
267 304 332 270 240 213 215 222 213 238 256 306 304 302 302 301 307 311 312 314 318 320 319 313 311 313 311 311 322 320 303 301 314 315 313 312 306 303 292 286 284 289 290 285
265 14 243 246 207 188 211 237 227 247 270 271 278 290 286 279 298 311 316 317 316 316 317 317 319 322 322 331 340 326 310 306 310 308 307 311 300 297 296 276 276 289 288 285
181 239 274 287 249 186 208 261 236 243 278 300 311 317 307 304 322 312 312 310 308 310 313 321 326 329 350 1 356 349 335 324 317 305 298 297 292 294 286 284 295 297 293 291
179 214 246 259 272 219 133 275 259 235 275 303 347 316 295 323 325 325 328 324 324 327 334 339 332 345 15 357 353 336 322 314 311 302 291 287 288 290 288 282 290 297 301 298
205 232 262 263 277 101 174 262 284 249 261 275 245 244 283 312 322 329 328 327 334 338 341 335 336 1 9 349 329 317 320 319 321 319 303 292 297 294 287 293 300 298 297 299
181 216 256 261 127 185 229 275 290 295 286 269 268 284 299 312 322 329 332 336 341 343 335 336 343 358 353 325 313 319 321 323 324 321 312 311 307 304 301 295 296 297 297 302
198 218 251 233 211 236 225 252 267 278 286 281 292 299 308 314 319 324 327 333 339 340 334 336 341 345 329 310 311 314 320 319 315 314 313 308 301 303 302 288 273 280 280 287
246 258 258 267 262 277 249 250 264 248 264 282 283 295 305 308 314 322 325 328 334 339 337 332 335 332 311 309 318 323 321 313 305 308 313 314 303 290 272 264 262 270 270 273
253 275 307 285 254 257 267 274 291 291 276 268 275 288 296 304 306 310 318 323 329 332 326 323 327 330 328 323 322 322 315 308 311 311 305 307 302 288 279 262 256 259 256 256
229 228 217 259 270 257 252 269 262 275 303 303 280 281 294 300 298 305 313 320 325 325 322 319 322 324 325 326 321 316 315 314 311 307 300 295 299 309 306 290 293 286 280 275
228 232 224 254 283 297 276 288 286 272 272 290 300 291 295 301 308 311 314 317 315 314 314 314 318 319 319 320 319 304 293 297 300 300 300 298 294 295 302 312 308 302 298 292
226 129 267 258 268 299 309 311 314 315 303 295 295 303 304 307 313 317 312 309 310 313 315 316 318 316 316 317 315 306 294 293 290 285 285 285 282 281 281 289 302 305 307 296
260 231 230 259 290 318 326 333 335 322 321 323 317 310 309 309 308 307 307 311 313 314 315 318 315 312 316 317 316 312 307 296 287 282 280 280 280 284 285 287 286 289 295 298
278 323 158 210 282 302 315 309 296 295 301 301 303 302 300 298 299 303 308 311 311 311 313 314 309 309 314 315 313 312 304 300 300 297 293 289 287 286 288 286 283 280 281 283
173 240 253 268 275 284 280 275 268 272 283 287 291 300 310 315 315 316 317 315 303 299 304 305 304 311 314 312 305 301 299 302 305 305 294 287 286 278 274 274 274 279 282 286
211 222 223 222 233 261 283 287 285 289 284 283 297 305 308 310 307 309 313 318 319 315 306 300 305 312 315 315 309 302 301 302 302 297 297 295 292 289 284 283 283 280 286 304
211 222 229 233 235 237 257 278 287 292 297 303 303 295 292 292 297 303 311 318 318 315 311 311 320 328 319 314 317 309 306 306 308 309 306 308 315 308 297 290 289 285 290 305
228 240 229 257 267 243 258 278 286 294 296 300 302 305 307 306 307 310 312 304 290 286 300 315 320 319 314 313 321 314 310 308 311 314 316 314 311 308 307 307 311 306 289 282
243 243 240 261 284 284 267 266 273 286 296 295 282 286 294 303 310 315 315 309 305 308 310 320 327 315 310 315 322 324 319 316 315 312 309 308 307 307 307 309 311 310 293 276
241 243 248 256 272 292 293 279 269 275 290 295 293 293 301 308 314 309 284 276 299 322 328 318 313 315 323 333 336 327 319 316 315 314 311 308 305 305 307 309 307 310 299 276
238 236 238 245 249 268 294 290 272 258 264 270 273 278 280 284 288 294 303 305 305 320 324 313 318 328 338 345 331 324 320 314 312 311 309 305 302 305 310 312 310 309 299 272
239 239 245 249 220 252 287 290 288 275 270 274 271 272 275 290 292 270 269 303 317 322 320 318 328 336 344 343 326 321 318 313 312 314 314 313 313 314 310 314 319 316 307 282
230 230 224 215 230 249 260 281 297 294 294 288 287 284 273 258 268 291 298 299 313 325 323 328 336 342 345 331 324 319 316 316 319 324 325 323 318 314 310 312 313 315 320 319
220 226 230 231 235 243 248 249 262 276 286 294 299 293 292 288 282 290 301 306 310 322 326 322 324 330 329 326 325 324 323 322 325 328 323 319 315 312 312 315 312 309 316 323
237 239 246 270 268 249 241 240 248 263 265 269 285 293 300 305 307 309 311 314 315 317 317 317 317 318 319 322 325 326 324 322 321 322 320 315 310 307 307 309 310 307 311 320